Weather History for Cleveland Burke, OH

Change the Weather History Date:

Friday, February 7, 2014

  Actual Average Record
Temperature  
Mean Temperature 6 °F -  
Max Temperature 12 °F 36 °F 59 °F (2009)
Min Temperature 0 °F 24 °F 0 °F (2014)
Degree Days  
Heating Degree Days 59    
Moisture  
Dew Point -4 °F    
Average Humidity 64    
Maximum Humidity 73    
Minimum Humidity 49    
Precipitation  
Precipitation 0.00 in - - ()
Sea Level Pressure  
Sea Level Pressure 30.40 in    
Wind  
Wind Speed 14 mph (SW)    
Max Wind Speed 17 mph    
Max Gust Speed 26 mph    
Visibility 10 miles    
Events Snow    
Averages and records for this station are not official NWS values.
T = Trace of Precipitation, MM = Missing Value Source: NWS Daily Summary

Daily Weather History Graph

Daily Weather History Graph

Search for Another Location

Airport:

Trip Planner

Search our weather history database for the weather conditions in past years. The results will help you decide how hot, cold, wet, or windy it might be!

Date:

Astronomy

Feb. 07, 2014 Rise Set
Actual Time 7:31 AM EST 5:50 PM EST
Civil Twilight 7:03 AM EST 6:19 PM EST
Nautical Twilight 6:30 AM EST 6:52 PM EST
Astronomical Twilight 5:57 AM EST 7:24 PM EST
Moon 12:00 PM EST (2/7) 1:47 AM EST (2/7)
Length of Visible Light 11h 16m
Length of Day
10h 18m
First Quarter, 59% of the Moon is Illuminated
Feb 7
First Quarter
Feb 14
Full
Feb 22
Last Quarter
Mar 1
New
Mar 8
First Quarter

Hourly Weather History & Observations

Time (EST) Temp. Windchill Dew Point Humidity Pressure Visibility Wind Dir Wind Speed Gust Speed Precip Events Conditions
12:32 AM 3.2 °F -15.9 °F -4.0 °F 72% 30.35 in 10.0 mi SW 16.1 mph - N/A   Mostly Cloudy
12:53 AM 3.0 °F -14.8 °F -5.1 °F 69% 30.38 in 10.0 mi SW 13.8 mph - N/A   Mostly Cloudy
1:53 AM 3.0 °F -14.1 °F -4.0 °F 73% 30.39 in 9.0 mi SW 12.7 mph - 0.00 in Snow Light Snow
2:53 AM 1.0 °F -16.6 °F -6.0 °F 72% 30.39 in 10.0 mi SW 12.7 mph - 0.00 in   Mostly Cloudy
3:01 AM 1.4 °F -16.1 °F -5.8 °F 72% 30.35 in 10.0 mi SSW 12.7 mph - N/A   Scattered Clouds
3:53 AM 1.0 °F -14.0 °F -7.1 °F 69% 30.38 in 10.0 mi SSW 9.2 mph - N/A   Clear
4:53 AM -0.0 °F -18.0 °F -7.1 °F 72% 30.39 in 10.0 mi SSW 12.7 mph - N/A   Clear
5:53 AM -0.0 °F -17.1 °F -7.1 °F 72% 30.40 in 10.0 mi SSW 11.5 mph - N/A   Overcast
6:53 AM -0.9 °F -19.9 °F -8.0 °F 72% 30.40 in 10.0 mi South 13.8 mph - N/A   Mostly Cloudy
7:53 AM -0.9 °F -18.3 °F -8.0 °F 72% 30.41 in 10.0 mi SSW 11.5 mph - N/A   Scattered Clouds
8:53 AM -0.0 °F -19.4 °F -7.1 °F 72% 30.42 in 10.0 mi SW 15.0 mph - N/A   Partly Cloudy
9:53 AM 1.9 °F -14.7 °F -5.1 °F 72% 30.42 in 10.0 mi SSW 11.5 mph - N/A   Clear
10:53 AM 5.0 °F -10.8 °F -4.0 °F 66% 30.43 in 10.0 mi SW 11.5 mph - N/A   Clear
11:53 AM 7.0 °F -9.1 °F -2.9 °F 64% 30.42 in 10.0 mi SW 12.7 mph - N/A   Clear
12:53 PM 10.0 °F -5.2 °F -2.9 °F 56% 30.40 in 10.0 mi SSW 12.7 mph - N/A   Clear
1:53 PM 12.0 °F -4.5 °F -2.0 °F 53% 30.39 in 10.0 mi SW 16.1 mph - N/A   Scattered Clouds
2:53 PM 12.9 °F -2.2 °F -2.0 °F 51% 30.38 in 10.0 mi SW 13.8 mph - N/A   Partly Cloudy
3:53 PM 12.9 °F -3.9 °F -2.9 °F 49% 30.39 in 10.0 mi SW 17.3 mph 26.5 mph N/A   Clear
4:53 PM 12.0 °F -4.0 °F -2.0 °F 53% 30.39 in 10.0 mi SW 15.0 mph - N/A   Clear
5:53 PM 10.9 °F -4.7 °F -2.9 °F 54% 30.40 in 10.0 mi SSW 13.8 mph - N/A   Clear
6:53 PM 10.0 °F -7.1 °F -2.9 °F 56% 30.41 in 10.0 mi SW 16.1 mph - N/A   Clear
7:53 PM 9.0 °F -9.0 °F -2.9 °F 59% 30.41 in 10.0 mi SW 17.3 mph 21.9 mph N/A   Clear
8:53 PM 9.0 °F -6.6 °F -2.9 °F 59% 30.40 in 10.0 mi SSW 12.7 mph 20.7 mph N/A   Clear
9:53 PM 9.0 °F -7.3 °F -2.9 °F 59% 30.40 in 10.0 mi SW 13.8 mph 20.7 mph N/A   Clear
10:53 PM 8.1 °F -5.3 °F -2.9 °F 61% 30.39 in 10.0 mi SW 9.2 mph - N/A   Clear
11:53 PM 7.0 °F -7.5 °F -2.9 °F 64% 30.38 in 10.0 mi SW 10.4 mph - N/A   Clear